Regional Weather Roundup
Issued by NWS Cleveland, OH

Home | Current Version | Previous Version | Graphics & Text | Print | Product List | Glossary On
Versions: 1 2 3 4 5 6 7 8 9 10 11 12 13 14 15 16 17 18 19 20 21 22 23 24 25 26 27 28 29 30 31 32 33 34 35 36 37 38 39 40 41 42 43 44 45 46 47 48 49 50
000
ASUS41 KCLE 021612
RWRCLE
OHIO REGIONAL WEATHER ROUNDUP
NATIONAL WEATHER SERVICE WILMINGTON, OH
1200 PM EDT MON MAY 02 2016

NOTE: "FAIR" INDICATES FEW OR NO CLOUDS BELOW 12,000 FEET WITH NO
SIGNIFICANT WEATHER AND/OR OBSTRUCTIONS TO VISIBILITY.

OHZ001>008-015>018-024>027-034-035-043-044-021700-
   NORTHWEST OHIO

CITY           SKY/WX    TMP DP  RH WIND       PRES   REMARKS
DEFIANCE       CLOUDY    50  46  86 NE6       30.01R FOG
FINDLAY        CLOUDY    51  43  74 NE10      30.00R
TOLEDO EXPRESS CLOUDY    52  47  83 E7        30.00F
TOLEDO EXEC    CLOUDY    52  45  77 NE8       30.01F
LIMA           CLOUDY    51  48  89 NE7       29.99R
$$

OHZ009>014-019>023-028>033-038-089-021700-
   NORTHEAST OHIO

CITY           SKY/WX    TMP DP  RH WIND       PRES   REMARKS
CLE-HOPKINS    CLOUDY    48  45  89 NE10      30.03S
CLE-LAKEFRONT  CLOUDY    48  45  89 N13       30.00F FOG
CUY CO. ARPT   CLOUDY    48  46  93 NE9       30.02R FOG
LORAIN-ELYRIA  CLOUDY    48  43  82 NE10      30.01F
ASHTABULA      CLOUDY    45  43  93 NE10      30.02R
AKRON-CANTON   CLOUDY    50  46  86 N8        29.98S FOG
WOOSTER        CLOUDY    48  46  93 N10G16    30.00S
MANSFIELD      CLOUDY    48  47  96 NE9       29.98F
YOUNGSTOWN     CLOUDY    48  46  93 NW10      29.98R
$$

OHZ042-051>053-060>062-070>072-077>081-021700-
  SOUTHWEST OHIO

CITY           SKY/WX    TMP DP  RH WIND       PRES   REMARKS
CINC-COVINGTON CLOUDY    63  53  70 W10       29.88F
CINC-LUNKEN    PTSUNNY   65  56  72 SW8       29.97
HAMILTON       CLOUDY    64  53  67 W8        29.98S
DAYTON         CLOUDY    56  51  84 N6        29.99S
WRIGHT-PAT AFB CLOUDY    57  55  94 VRB3      29.98F
DAYTON GENERAL PTSUNNY   61  53  75 N9        29.95F
WILMINGTON     PTSUNNY   63  55  75 NW6       29.94F
$$

OHZ036-037-039>041-045>050-054>059-063>069-073>076-082>088-021700-
  CENTRAL AND SOUTHEAST OHIO

CITY           SKY/WX    TMP DP  RH WIND       PRES   REMARKS
COLUMBUS       CLOUDY    56  52  86 CALM      29.97F
OSU AIRPORT    CLOUDY    56  51  84 CALM      29.98S
BOLTON FIELD   PTSUNNY   59  55  88 NW3       29.97F
RICKENBACK AFB CLOUDY    59  55  85 N5        29.96F
NEWARK         CLOUDY    62  54  74 NW7       29.97S
MARION         CLOUDY    51  47  86 NE10      29.99S
LANCASTER      CLOUDY    62  57  83 NW9       29.97S
ZANESVILLE     CLOUDY    66  56  70 NW12      29.95S
NEW PHILLY     CLOUDY    55  51  86 N10       29.97R
$$




USA.gov is the U.S. government's official web portal to all federal, state and local government web resources and services.